[[{"header":{"parameterUnit":"m.s-1","parameterCategory":1,"la1":30.2991,"la2":30.254,"lo1":-89.0895,"lo2":-89.0444,"dy":0.0017,"dx":0.0017,"nx":28,"ny":28,"refTime":"2023-08-08T03:00:00:Z","depth":0,"parameterNumber":2,"parameterNumberName":"U-component_of_WINDS"},"data":[0,0,0,0,0,0,0,0,0,0,0,0,0,0,0,0,0,0,0,0,0,0,0,0,0,0,0,0,0,0,0,0,0,0,0,0,0,0,0,0,0,0,0,0,0,0,0,0,0,0,0,0,0,0,0,0,0,0,1.1598,1.16,0,1.1754,1.1756,1.1758,1.1811,1.181,1.1809,1.1809,1.1968,1.1973,1.1978,0,0,0,0,0,0,0,0,0,0,0,0,0,1.1345,1.1349,1.1598,1.16,1.1602,1.1754,1.1756,1.1758,1.1811,1.181,1.1809,1.1808,1.1967,1.1972,1.1978,0,0,0,0,0,0,0,0,0,0,0,0,0,1.1473,1.1351,1.1598,1.1647,1.1653,1.1754,1.1756,1.1759,1.1811,1.181,1.1809,1.1808,1.1965,1.1972,1.1979,1.2043,0,0,1.2001,1.2004,0,0,0,0,0,0,0,0,1.1466,1.1482,1.1637,1.1643,1.165,1.1762,1.1725,1.1854,1.1811,1.1751,1.1809,1.1808,1.19,1.1913,1.1944,1.205,1.2057,1.2002,1.2006,1.2009,1.2011,0,0,0,0,0,0,0,1.1457,1.1476,1.166,1.164,1.1647,1.166,1.1678,1.175,1.1829,1.1756,1.176,1.1778,1.1904,1.1937,1.1948,1.2059,1.2001,1.2008,1.2012,1.2015,1.2224,1.2226,0,0,0,0,0,0,1.144,1.1468,1.1655,1.1665,1.1554,1.1666,1.1685,1.1727,1.1828,1.1843,1.1779,1.178,1.1925,1.194,1.1954,1.2035,1.2009,1.2016,1.202,1.2223,1.2225,1.2226,0,0,0,0,0,0,1.1434,1.1456,1.1649,1.1568,1.1593,1.1671,1.1718,1.1731,1.1764,1.1845,1.186,1.1798,1.1925,1.1944,1.202,1.2041,1.2019,1.2026,1.2222,1.2224,1.2225,1.2196,0,0,0,0,0,0,1.1427,1.1454,1.1479,1.1568,1.1597,1.1712,1.1719,1.1734,1.1776,1.178,1.1868,1.1881,1.1926,1.2009,1.2027,1.205,1.2031,1.222,1.2223,1.2225,1.2196,1.2197,1.2198,0,0,0,0,0,1.1417,1.1465,1.148,1.1502,1.163,1.1713,1.173,1.178,1.1778,1.1804,1.1856,1.1878,1.2036,1.2016,1.2037,1.2063,1.2219,1.2222,1.2225,1.2195,1.2197,1.2198,0,0,0,0,0,0,1.1376,1.1477,1.1495,1.1573,1.1634,1.1722,1.1756,1.178,1.1843,1.1843,1.1903,1.1922,1.1994,1.2036,1.2013,1.213,1.2129,1.2136,1.2099,1.2101,1.2102,1.209,1.2037,0,0,0,0,0,1.1376,1.1435,1.152,1.158,1.161,1.1677,1.1715,1.1749,1.1815,1.1841,1.1899,1.1961,1.2025,1.2066,1.2129,1.2202,1.2222,1.2231,1.2232,1.2232,1.2237,1.2279,1.2283,1.2235,1.2235,1.2235,0,0,1.1376,1.1438,1.1472,1.1573,1.1625,1.1684,1.1699,1.1761,1.1806,1.185,1.1925,1.197,1.2044,1.2119,1.2155,1.2157,1.2255,1.2236,1.2235,1.224,1.2282,1.2286,1.229,1.2237,1.2236,1.2236,0,0,1.1406,1.146,1.1515,1.1567,1.1644,1.1689,1.1702,1.1787,1.1818,1.1895,1.1929,1.1983,1.2091,1.2143,1.2183,1.2232,1.2255,1.2251,1.2256,1.2296,1.23,1.2303,1.232,1.2326,1.2256,1.2256,1.2256,0,1.1396,1.1487,1.1541,1.1601,1.1644,1.1688,1.1744,1.1791,1.1885,1.1914,1.1914,1.2051,1.2104,1.2191,1.2203,1.2234,1.2251,1.2241,1.2295,1.2299,1.2303,1.232,1.2326,1.2255,1.2255,1.2255,1.2255,0,1.1471,1.1534,1.1569,1.1659,1.1706,1.1764,1.1826,1.1867,1.1896,1.1941,1.2018,1.2083,1.216,1.2183,1.2212,1.2274,1.2273,1.2283,1.2283,1.2306,1.2323,1.233,1.2254,1.2254,1.2254,1.2254,0,0,1.1479,1.1598,1.161,1.1651,1.174,1.1789,1.1849,1.1924,1.1958,1.2021,1.2072,1.2163,1.2174,1.2219,1.2255,1.2289,1.2323,1.2296,1.2299,1.2298,1.2395,1.2385,1.2392,1.2339,1.2341,1.2342,1.2388,0,1.152,1.1629,1.1679,1.1765,1.1823,1.1865,1.1917,1.1977,1.202,1.2076,1.2123,1.2186,1.2196,1.2223,1.226,1.2311,1.2343,1.2309,1.2387,1.2389,1.2366,1.2401,1.2391,1.2432,1.2395,1.2396,1.2397,0,1.1583,1.1646,1.1739,1.182,1.1847,1.1892,1.1965,1.2017,1.2086,1.2115,1.2165,1.2199,1.2263,1.2259,1.2348,1.2323,1.2358,1.2388,1.2391,1.24,1.2394,1.2409,1.2446,1.2451,1.2408,1.2407,1.2406,0,1.1578,1.1687,1.1756,1.179,1.1887,1.1918,1.196,1.2028,1.207,1.2133,1.2161,1.2231,1.2269,1.2322,1.2373,1.2366,1.2457,1.2457,1.2482,1.2481,1.2499,1.2497,1.254,1.2522,1.2522,1.2522,1.2522,0,1.1618,1.1673,1.1755,1.1797,1.186,1.1916,1.1976,1.2021,1.2081,1.2132,1.2173,1.222,1.2286,1.2342,1.2383,1.2449,1.2466,1.2491,1.2501,1.2487,1.2484,1.251,1.2508,1.2524,1.2523,1.2523,1.2523,0,1.1623,1.1681,1.1759,1.1844,1.1867,1.1909,1.1982,1.2025,1.207,1.2134,1.2153,1.2224,1.2291,1.2348,1.2437,1.2464,1.2533,1.2546,1.251,1.2515,1.2536,1.2533,1.2598,1.2609,1.2584,1.2584,1.2584,0,1.1645,1.1688,1.1778,1.1816,1.1857,1.1917,1.196,1.2017,1.206,1.2141,1.2173,1.2244,1.2303,1.2409,1.2468,1.2536,1.255,1.2568,1.256,1.2545,1.2549,1.2546,1.255,1.2568,1.2568,1.2568,1.2568,0,1.1676,1.1703,1.1763,1.1834,1.1884,1.1942,1.2001,1.2029,1.2097,1.2143,1.2213,1.2258,1.2349,1.2418,1.2493,1.2536,1.2563,1.257,1.2579,1.2565,1.2542,1.2554,1.251,1.2568,1.2568,1.2568,1.2568,1.2568,1.169,1.173,1.18,1.1865,1.1916,1.197,1.2014,1.2065,1.2124,1.2202,1.2232,1.2303,1.237,1.2473,1.2516,1.2572,1.2576,1.2589,1.2593,1.2595,1.2592,1.2533,1.2586,1.2586,1.2586,1.2586,1.2586,0,1.1723,1.177,1.183,1.1912,1.1963,1.1985,1.2051,1.2093,1.2155,1.2215,1.2273,1.2352,1.242,1.2484,1.2554,1.2587,1.2601,1.2603,1.2601,1.261,1.2585,1.257,1.259,1.259,1.259,1.259,1.259,1.259,1.1746,1.1815,1.1849,1.1943,1.199,1.206,1.2095,1.2145,1.2194,1.2281,1.2337,1.2379,1.2441,1.2516,1.2578,1.2596,1.2619,1.2618,1.2638,1.2613,1.2612,1.2611,1.2597,1.2623,1.2623,1.2659,1.2659,1.2659]},{"header":{"parameterUnit":"m.s-1","parameterCategory":1,"la1":30.2991,"la2":30.254,"lo1":-89.0895,"lo2":-89.0444,"dy":0.0017,"dx":0.0017,"nx":28,"ny":28,"refTime":"2023-08-08T03:00:00:Z","depth":0,"parameterNumber":3,"parameterNumberName":"V-component_of_WINDS"},"data":[0,0,0,0,0,0,0,0,0,0,0,0,0,0,0,0,0,0,0,0,0,0,0,0,0,0,0,0,0,0,0,0,0,0,0,0,0,0,0,0,0,0,0,0,0,0,0,0,0,0,0,0,0,0,0,0,0,0,6.1192,6.1192,0,6.1154,6.1153,6.1153,6.1036,6.1033,6.1031,6.1028,6.0991,6.0993,6.0994,0,0,0,0,0,0,0,0,0,0,0,0,0,6.1169,6.117,6.1192,6.1192,6.1191,6.1154,6.1153,6.1153,6.1036,6.1033,6.103,6.1027,6.0991,6.0993,6.0994,0,0,0,0,0,0,0,0,0,0,0,0,0,6.1159,6.117,6.1193,6.1129,6.1123,6.1154,6.1153,6.1153,6.1037,6.1033,6.1029,6.1026,6.099,6.0992,6.0995,6.1085,0,0,6.1001,6.1002,0,0,0,0,0,0,0,0,6.116,6.116,6.1139,6.1133,6.1126,6.1096,6.1131,6.113,6.1038,6.107,6.1028,6.1024,6.1029,6.1028,6.1029,6.1083,6.1082,6.1001,6.1003,6.1003,6.1004,0,0,0,0,0,0,0,6.1161,6.1161,6.1177,6.1139,6.1131,6.1103,6.1098,6.113,6.1072,6.1067,6.1058,6.1055,6.1025,6.1028,6.1028,6.1081,6.1001,6.1003,6.1004,6.1005,6.1208,6.1212,0,0,0,0,0,0,6.117,6.1163,6.1178,6.1176,6.1134,6.1107,6.11,6.111,6.1071,6.1061,6.1058,6.105,6.1026,6.1025,6.1026,6.1129,6.1003,6.1005,6.1007,6.1204,6.1209,6.1213,0,0,0,0,0,0,6.117,6.1173,6.118,6.1167,6.1166,6.1111,6.1122,6.1111,6.1113,6.1065,6.1054,6.1071,6.1023,6.1023,6.1071,6.1126,6.1006,6.1008,6.1199,6.1205,6.1211,6.1337,0,0,0,0,0,0,6.117,6.1173,6.1206,6.1169,6.1167,6.1225,6.1126,6.1113,6.1116,6.1105,6.1074,6.1065,6.102,6.1069,6.1073,6.1127,6.101,6.1194,6.1202,6.1209,6.1327,6.1346,6.1363,0,0,0,0,0,6.117,6.1244,6.1209,6.1211,6.1207,6.1229,6.1228,6.1173,6.1121,6.1155,6.1124,6.1066,6.112,6.1075,6.1079,6.1134,6.119,6.12,6.1209,6.1319,6.1342,6.1362,0,0,0,0,0,0,6.129,6.1238,6.1198,6.1262,6.1251,6.1209,6.1249,6.1199,6.1203,6.1192,6.1125,6.1119,6.1177,6.116,6.1111,6.122,6.1145,6.1156,6.1228,6.125,6.1267,6.127,6.1012,0,0,0,0,0,6.1324,6.1345,6.1298,6.136,6.1356,6.1304,6.1311,6.127,6.1256,6.1251,6.1223,6.1213,6.1227,6.1238,6.1248,6.1325,6.1317,6.1365,6.1383,6.1397,6.1407,6.1447,6.1468,6.1244,6.1244,6.1243,0,0,6.1395,6.1369,6.1386,6.1383,6.1369,6.1394,6.13,6.133,6.1347,6.1255,6.1298,6.1279,6.1262,6.1325,6.1352,6.1313,6.1467,6.1409,6.1421,6.1423,6.1458,6.148,6.1499,6.125,6.1249,6.1248,0,0,6.1535,6.1518,6.1566,6.1554,6.1535,6.15,6.1512,6.1478,6.1461,6.1503,6.1435,6.1455,6.1481,6.1472,6.1471,6.161,6.1557,6.1616,6.1707,6.1747,6.1765,6.178,6.1829,6.1848,6.1626,6.1626,6.1626,0,6.1625,6.1657,6.1598,6.1632,6.1633,6.155,6.16,6.1592,6.1577,6.158,6.1537,6.1568,6.1552,6.1611,6.1645,6.1648,6.166,6.1618,6.1767,6.1781,6.1795,6.1841,6.186,6.1633,6.1632,6.1632,6.1631,0,6.1769,6.1793,6.1835,6.1822,6.1828,6.187,6.1818,6.1831,6.1791,6.1761,6.1806,6.1783,6.1787,6.1799,6.176,6.1854,6.183,6.1778,6.1702,6.1824,6.1867,6.1884,6.1643,6.1641,6.1639,6.1637,0,0,6.1983,6.1937,6.1953,6.1947,6.192,6.1937,6.1976,6.198,6.1993,6.1986,6.2017,6.2042,6.1993,6.1992,6.1952,6.1987,6.2098,6.193,6.1929,6.1962,6.22,6.2239,6.2261,6.2063,6.2067,6.2069,6.2202,0,6.2115,6.2177,6.2125,6.2197,6.2219,6.2142,6.2176,6.2164,6.2137,6.2153,6.2124,6.2142,6.2077,6.2076,6.2107,6.2078,6.2145,6.2068,6.2092,6.2094,6.2097,6.2283,6.2323,6.2449,6.2218,6.2221,6.2223,0,6.2277,6.2277,6.2351,6.232,6.2327,6.2358,6.2358,6.2373,6.2358,6.2337,6.2337,6.2287,6.2323,6.225,6.23,6.2249,6.2256,6.2243,6.2247,6.2246,6.2165,6.2287,6.2488,6.2507,6.2248,6.2246,6.2244,0,6.2425,6.2444,6.249,6.2487,6.2452,6.2476,6.2462,6.2443,6.2449,6.245,6.2453,6.2458,6.2461,6.2467,6.242,6.2371,6.2476,6.2399,6.246,6.2461,6.2485,6.2484,6.269,6.2491,6.2491,6.249,6.249,0,6.2577,6.2626,6.2556,6.2585,6.2637,6.2578,6.2632,6.261,6.2595,6.2619,6.2553,6.2578,6.2515,6.2533,6.2497,6.2544,6.2546,6.253,6.252,6.2535,6.2537,6.2538,6.2528,6.2495,6.2494,6.2493,6.2493,0,6.2751,6.2706,6.2752,6.2715,6.2707,6.2747,6.2716,6.2741,6.2711,6.2742,6.2746,6.2699,6.2717,6.2672,6.2683,6.2659,6.2727,6.2703,6.2731,6.2724,6.2787,6.2782,6.3001,6.3026,6.2812,6.2815,6.2816,0,6.285,6.2885,6.2852,6.2863,6.2853,6.2872,6.2878,6.2822,6.283,6.2817,6.2844,6.2857,6.2863,6.2896,6.2864,6.2872,6.2848,6.2924,6.2849,6.2863,6.2848,6.2847,6.285,6.2939,6.2942,6.2944,6.2946,0,6.3032,6.3008,6.3018,6.3021,6.303,6.303,6.3025,6.3038,6.2978,6.2992,6.3009,6.3014,6.3026,6.3039,6.3041,6.3028,6.2978,6.297,6.2984,6.3,6.3015,6.3008,6.2773,6.2965,6.2963,6.2962,6.296,6.296,6.3171,6.3198,6.318,6.3193,6.3184,6.3182,6.3204,6.3177,6.319,6.3194,6.3161,6.3185,6.3171,6.3167,6.316,6.3179,6.3145,6.3166,6.3171,6.3177,6.3187,6.3013,6.3179,6.3179,6.3178,6.3178,6.3177,0,6.3348,6.3333,6.3346,6.3341,6.3353,6.3304,6.3297,6.3309,6.3332,6.3322,6.333,6.3351,6.3364,6.3333,6.3341,6.3363,6.334,6.3367,6.3364,6.3362,6.3218,6.3204,6.3385,6.3385,6.3385,6.3385,6.3385,6.3385,6.3442,6.3486,6.3461,6.3501,6.3485,6.3508,6.3508,6.3506,6.3498,6.3523,6.3533,6.3513,6.3495,6.3502,6.3512,6.3503,6.3509,6.3544,6.3527,6.3393,6.3372,6.3353,6.334,6.3546,6.3546,6.367,6.3671,6.3672]}]]